Regional Weather Roundup
Issued by NWS

Home | Current Version | Previous Version | Graphics & Text | Print | Product List | Glossary On
Versions: 1 2 3 4 5 6 7 8 9 10 11 12 13 14 15 16 17 18 19 20 21 22 23 24 25 26 27 28 29 30 31 32 33 34 35 36 37 38 39 40 41 42 43 44 45 46 47 48 49 50
000
ASUS43 KOAX 180610
RWRNE

WEATHER ROUNDUP FOR NEBRASKA
NATIONAL WEATHER SERVICE OMAHA NE
100 AM CDT WED OCT 18 2017

NOTES: SATELLITE DATA IS BEING USED TO AUGMENT CLOUD COVER ABOVE
       12000 FEET.
       "FAIR" INDICATES FEW OR NO CLOUDS BELOW 12,000 FEET WITH NO
       SIGNIFICANT WEATHER AND/OR OBSTRUCTIONS TO VISIBILITY.


NEZ001>004-019>022-054>056-180700-
NEBRASKA PANHANDLE

CITY           SKY/WX    TMP DP  RH WIND       PRES   REMARKS
SCOTTSBLUFF    CLOUDY    43  26  51 N7        29.95F
6HR MIN TEMP:  43; 6HR MAX TEMP:  68;

ALLIANCE       CLOUDY    44  24  45 W7        29.93F
6HR MIN TEMP:  38; 6HR MAX TEMP:  60;

CHADRON        CLOUDY    49  23  36 SW12      29.85F
6HR MIN TEMP:  43; 6HR MAX TEMP:  69;

GORDON         FAIR      54  23  29 SW17      29.87F
6HR MIN TEMP:  50; 6HR MAX TEMP:  64;

KIMBALL        CLOUDY    44  24  46 W10       30.02F
SIDNEY         CLOUDY    37  25  61 W10       29.99F WCI  30
6HR MIN TEMP:  37; 6HR MAX TEMP:  63; 6HR PCP: TRACE;

$$

NEZ057>060-069>072-079>082-180700-
SOUTHWEST NEBRASKA

CITY           SKY/WX    TMP DP  RH WIND       PRES   REMARKS
NORTH PLATTE   CLEAR     58  34  40 SW6       29.94S
6HR MIN TEMP:  52; 6HR MAX TEMP:  70;

IMPERIAL       CLEAR     48  29  47 SW7       29.97F
6HR MIN TEMP:  46; 6HR MAX TEMP:  66;

LEXINGTON      CLEAR     55  38  52 S6        29.93F
MCCOOK         CLEAR     52  37  56 SW8       29.95F
6HR MIN TEMP:  52; 6HR MAX TEMP:  72;

OGALLALA       CLEAR     49  29  46 CALM      29.95F
$$

NEZ005>010-023>029-035>040-094-180700-
NORTH CENTRAL NEBRASKA

CITY           SKY/WX    TMP DP  RH WIND       PRES   REMARKS
VALENTINE      CLEAR     51  29  42 SW10      29.83F
6HR MIN TEMP:  50; 6HR MAX TEMP:  69;

AINSWORTH      CLEAR     54  33  44 S14       29.85F
BROKEN BOW     CLEAR     54  38  54 S12       29.92F
6HR MIN TEMP:  43; 6HR MAX TEMP:  63;

O`NEILL        CLEAR     57  40  53 S9        29.88S
ORD            CLEAR     52  37  56 SE5       29.90F
6HR MIN TEMP:  47; 6HR MAX TEMP:  64;

THEDFORD       CLEAR     55  31  40 S10       29.90F
$$

NEZ041-046>049-061>064-073>077-083>087-180700-
SOUTH CENTRAL NEBRASKA

CITY           SKY/WX    TMP DP  RH WIND       PRES   REMARKS
GRAND ISLAND   CLEAR     54  46  74 S9        29.93F
6HR MIN TEMP:  52; 6HR MAX TEMP:  67;

AURORA         CLEAR     55  44  68 S9        29.94F
HASTINGS       CLEAR     56  43  61 S9        29.95F
6HR MIN TEMP:  55; 6HR MAX TEMP:  69;

HEBRON         CLEAR     55  46  72 S8        29.97F
HOLDREGE       CLEAR     53  40  62 SW7       29.94F
KEARNEY        CLEAR     55  42  61 SW10      29.94F
YORK             N/A     54  46  76 S9        29.95F
$$

NEZ011>018-030>034-042>045-180700-
NORTHEAST NEBRASKA

CITY           SKY/WX    TMP DP  RH WIND       PRES   REMARKS
NORFOLK        CLEAR     52  45  77 S8        29.91F
6HR MIN TEMP:  52; 6HR MAX TEMP:  65;

ALBION         CLEAR     55  44  66 SE5       29.92F
BLAIR          CLEAR     55  47  74 S9        29.96F
COLUMBUS       CLEAR     49  44  83 S6        29.94F
FREMONT        CLEAR     58  46  64 SE7       29.95F
TEKAMAH        CLEAR     47  43  86 SE7       29.94F
6HR MIN TEMP:  43; 6HR MAX TEMP:  59;

WAYNE          CLEAR     51  45  78 CALM      29.91F
$$

NEZ050>053-065>068-078-088>093-180700-
SOUTHEAST NEBRASKA

CITY           SKY/WX    TMP DP  RH WIND       PRES   REMARKS
LINCOLN        CLEAR     52  45  77 S7        29.98F
6HR MIN TEMP:  50; 6HR MAX TEMP:  64;

OMAHA EPPLEY   CLEAR     52  45  77 SE9       29.97F
6HR MIN TEMP:  52; 6HR MAX TEMP:  63;

BEATRICE       CLEAR     55  47  74 S8        30.00S
FALLS CITY     CLEAR     55  46  71 S8        30.02F
6HR MIN TEMP:  55; 6HR MAX TEMP:  66;

NEBRASKA CITY  CLEAR     54  47  79 S9        30.00F
PLATTSMOUTH    CLEAR     54  48  79 S10       29.98F
$$

NEZ044-045-051>053-067-180700-
OMAHA AREA

CITY           SKY/WX    TMP DP  RH WIND       PRES   REMARKS
OMAHA EPPLEY   CLEAR     52  45  77 SE9       29.97F
6HR MIN TEMP:  52; 6HR MAX TEMP:  63;

BLAIR          CLEAR     55  47  74 S9        29.96F
FREMONT        CLEAR     58  46  64 SE7       29.95F
MILLARD        CLEAR     51  47  86 CALM      29.97F
OFFUTT AFB     CLEAR     45  43  93 E5        29.97F
PLATTSMOUTH    CLEAR     54  48  79 S10       29.98F
WAHOO          FAIR      47  43  85 SE5       29.95F
$$




USA.gov is the U.S. government's official web portal to all federal, state and local government web resources and services.